Hourly Weather Krasnorichka

Today, 20 September, Sunday

Time Temperature Precipitation Wind Pressure Humidity
00:00 +9°C° 0 mm 2 mps 747 mmHg 71%
01:00 +8°C° 0 mm 2 mps 747 mmHg 74%
02:00 +8°C° 0 mm 2 mps 747 mmHg 78%
03:00 +8°C° 0 mm 2 mps 747 mmHg 82%
04:00 +8°C° 0 mm 2 mps 747 mmHg 86%
05:00 +8°C° 0 mm 2 mps 747 mmHg 91%
06:00 +9°C° 0 mm 2 mps 747 mmHg 88%
07:00 +10°C° 0 mm 2 mps 747 mmHg 85%
08:00 +13°C° 0 mm 2 mps 748 mmHg 82%
09:00 +14°C° 0 mm 2 mps 748 mmHg 74%
10:00 +16°C° 0 mm 2 mps 748 mmHg 66%
11:00 +18°C° 0 mm 2 mps 748 mmHg 58%
12:00 +19°C° 0 mm 2 mps 748 mmHg 53%
13:00 +19°C° 0 mm 2 mps 748 mmHg 47%
14:00 +20°C° 0 mm 2 mps 748 mmHg 42%
15:00 +19°C° 0 mm 2 mps 748 mmHg 45%
16:00 +20°C° 0 mm 1 mps 747 mmHg 48%
17:00 +19°C° 0 mm 1 mps 747 mmHg 51%
18:00 +16°C° 0 mm 1 mps 747 mmHg 52%
19:00 +14°C° 0 mm 1 mps 748 mmHg 53%
20:00 +13°C° 0 mm 1 mps 748 mmHg 55%
21:00 +12°C° 0 mm 1 mps 748 mmHg 55%
22:00 +12°C° 0 mm 1 mps 748 mmHg 56%
23:00 +11°C° 0 mm 1 mps 748 mmHg 57%

Tomorrow, 21 September, Monday

Time Temperature Precipitation Wind Pressure Humidity
00:00 +11°C° 0 mm 1 mps 748 mmHg 58%
01:00 +11°C° 0 mm 1 mps 748 mmHg 60%
02:00 +10°C° 0 mm 1 mps 748 mmHg 61%
03:00 +10°C° 0 mm 1 mps 748 mmHg 64%
04:00 +10°C° 0 mm 1 mps 748 mmHg 68%
05:00 +9°C° 0 mm 1 mps 748 mmHg 71%
06:00 +11°C° 0 mm 1 mps 748 mmHg 67%
07:00 +12°C° 0 mm 1 mps 748 mmHg 63%
08:00 +14°C° 0 mm 1 mps 748 mmHg 60%
09:00 +16°C° 0 mm 1 mps 748 mmHg 54%
10:00 +19°C° 0 mm 1 mps 749 mmHg 49%
11:00 +21°C° 0 mm 1 mps 749 mmHg 44%
12:00 +21°C° 0 mm 1 mps 748 mmHg 43%
13:00 +21°C° 0 mm 2 mps 748 mmHg 41%
14:00 +23°C° 0 mm 2 mps 748 mmHg 40%
15:00 +22°C° 0 mm 1 mps 748 mmHg 44%
16:00 +21°C° 0 mm 1 mps 747 mmHg 47%
17:00 +21°C° 0 mm 1 mps 747 mmHg 51%
18:00 +19°C° 0 mm 1 mps 747 mmHg 54%
19:00 +16°C° 0 mm 2 mps 747 mmHg 57%
20:00 +15°C° 0 mm 2 mps 747 mmHg 60%
21:00 +14°C° 0 mm 2 mps 747 mmHg 60%
22:00 +14°C° 0 mm 2 mps 747 mmHg 61%
23:00 +13°C° 0 mm 2 mps 747 mmHg 62%

Day after tomorrow, 22 September, Tuesday

Time Temperature Precipitation Wind Pressure Humidity
00:00 +13°C° 0 mm 2 mps 747 mmHg 62%
01:00 +12°C° 0 mm 2 mps 747 mmHg 62%
02:00 +12°C° 0 mm 2 mps 747 mmHg 61%
03:00 +11°C° 0 mm 3 mps 747 mmHg 61%
04:00 +10°C° 0 mm 3 mps 746 mmHg 60%
05:00 +10°C° 0 mm 3 mps 746 mmHg 59%
06:00 +12°C° 0 mm 3 mps 746 mmHg 56%
07:00 +13°C° 0 mm 3 mps 746 mmHg 54%
08:00 +14°C° 0 mm 4 mps 746 mmHg 51%
09:00 +18°C° 0 mm 4 mps 747 mmHg 47%
10:00 +20°C° 0 mm 4 mps 747 mmHg 44%
11:00 +22°C° 0 mm 4 mps 747 mmHg 41%
12:00 +23°C° 0 mm 4 mps 746 mmHg 39%
13:00 +25°C° 0 mm 4 mps 746 mmHg 38%
14:00 +26°C° 0 mm 4 mps 746 mmHg 36%
15:00 +25°C° 0 mm 4 mps 745 mmHg 40%
16:00 +22°C° 0 mm 3 mps 745 mmHg 44%
17:00 +21°C° 0 mm 2 mps 745 mmHg 47%
18:00 +20°C° 0 mm 2 mps 745 mmHg 48%
19:00 +18°C° 0 mm 2 mps 745 mmHg 49%
20:00 +16°C° 0 mm 2 mps 745 mmHg 49%
21:00 +15°C° 0 mm 2 mps 744 mmHg 48%
22:00 +15°C° 0 mm 2 mps 744 mmHg 46%
23:00 +13°C° 0 mm 3 mps 744 mmHg 45%

23 September, Wednesday

Time Temperature Precipitation Wind Pressure Humidity
00:00 +13°C° 0 mm 3 mps 744 mmHg 43%
01:00 +12°C° 0 mm 3 mps 744 mmHg 42%
02:00 +12°C° 0 mm 3 mps 744 mmHg 40%
03:00 +11°C° 0 mm 3 mps 744 mmHg 42%
04:00 +11°C° 0 mm 3 mps 744 mmHg 44%
05:00 +10°C° 0 mm 3 mps 743 mmHg 45%
06:00 +12°C° 0 mm 3 mps 743 mmHg 46%
07:00 +13°C° 0 mm 3 mps 743 mmHg 47%
08:00 +14°C° 0 mm 4 mps 743 mmHg 48%
09:00 +17°C° 0 mm 4 mps 743 mmHg 42%
10:00 +19°C° 0 mm 4 mps 743 mmHg 36%
11:00 +22°C° 0 mm 5 mps 743 mmHg 31%
12:00 +22°C° 0 mm 5 mps 743 mmHg 30%
13:00 +23°C° 0 mm 5 mps 743 mmHg 28%
14:00 +25°C° 0 mm 5 mps 742 mmHg 27%
15:00 +22°C° 0 mm 4 mps 742 mmHg 31%
16:00 +21°C° 0 mm 3 mps 741 mmHg 35%
17:00 +20°C° 0 mm 2 mps 741 mmHg 39%
18:00 +19°C° 0 mm 2 mps 741 mmHg 39%
19:00 +17°C° 0 mm 2 mps 741 mmHg 38%
20:00 +15°C° 0 mm 2 mps 741 mmHg 38%
21:00 +15°C° 0 mm 2 mps 741 mmHg 40%
22:00 +14°C° 0 mm 2 mps 741 mmHg 41%
23:00 +14°C° 0 mm 2 mps 741 mmHg 43%

24 September, Thursday

Time Temperature Precipitation Wind Pressure Humidity
00:00 +14°C° 0 mm 2 mps 741 mmHg 46%
01:00 +13°C° 0 mm 2 mps 741 mmHg 50%
02:00 +12°C° 0 mm 3 mps 741 mmHg 53%
03:00 +12°C° 0 mm 3 mps 741 mmHg 55%
04:00 +11°C° 0 mm 3 mps 741 mmHg 56%
05:00 +11°C° 0 mm 3 mps 741 mmHg 58%
06:00 +12°C° 0 mm 3 mps 741 mmHg 58%
07:00 +13°C° 0 mm 3 mps 741 mmHg 57%
08:00 +16°C° 0 mm 3 mps 741 mmHg 57%
09:00 +18°C° 0 mm 3 mps 741 mmHg 52%
10:00 +20°C° 0 mm 3 mps 741 mmHg 48%
11:00 +23°C° 0 mm 4 mps 741 mmHg 43%
12:00 +24°C° 0 mm 3 mps 741 mmHg 41%
13:00 +25°C° 0 mm 3 mps 741 mmHg 38%
14:00 +26°C° 0 mm 3 mps 741 mmHg 36%
15:00 +25°C° 0 mm 3 mps 741 mmHg 39%
16:00 +24°C° 0 mm 2 mps 741 mmHg 43%
17:00 +23°C° 0 mm 2 mps 741 mmHg 47%
18:00 +21°C° 0 mm 2 mps 741 mmHg 48%
19:00 +19°C° 0 mm 2 mps 741 mmHg 50%
20:00 +18°C° 0 mm 2 mps 741 mmHg 51%
21:00 +17°C° 0 mm 2 mps 741 mmHg 51%
22:00 +17°C° 0 mm 2 mps 741 mmHg 51%
23:00 +16°C° 0 mm 2 mps 741 mmHg 52%

25 September, Friday

Time Temperature Precipitation Wind Pressure Humidity
00:00 +16°C° 0 mm 2 mps 741 mmHg 52%
01:00 +16°C° 0 mm 2 mps 741 mmHg 53%
02:00 +15°C° 0 mm 2 mps 741 mmHg 53%
03:00 +15°C° 0 mm 2 mps 741 mmHg 54%
04:00 +15°C° 0 mm 2 mps 741 mmHg 55%
05:00 +14°C° 0 mm 2 mps 741 mmHg 56%
06:00 +16°C° 0 mm 2 mps 741 mmHg 55%
07:00 +17°C° 0 mm 2 mps 741 mmHg 54%
08:00 +18°C° 0 mm 2 mps 741 mmHg 53%
09:00 +20°C° 0 mm 3 mps 741 mmHg 49%
10:00 +22°C° 0 mm 3 mps 741 mmHg 44%
11:00 +25°C° 0 mm 4 mps 740 mmHg 40%
12:00 +26°C° 0 mm 4 mps 740 mmHg 38%
13:00 +27°C° 0 mm 4 mps 740 mmHg 36%
14:00 +28°C° 0 mm 4 mps 739 mmHg 34%
15:00 +27°C° 0 mm 4 mps 739 mmHg 38%
16:00 +26°C° 0 mm 3 mps 738 mmHg 42%
17:00 +24°C° 0 mm 3 mps 738 mmHg 45%
18:00 +22°C° 0 mm 3 mps 737 mmHg 47%
19:00 +21°C° 0 mm 3 mps 737 mmHg 48%
20:00 +19°C° 0 mm 4 mps 737 mmHg 49%
21:00 +19°C° 0 mm 4 mps 737 mmHg 49%
22:00 +19°C° 0 mm 4 mps 736 mmHg 49%
23:00 +19°C° 0 mm 5 mps 736 mmHg 49%
Show more